FW1098 Weather Reports


time (UTC)temp
F
wind
direction
speed
knots
gust
knots
rain 1hr
in
rain 24hr
in
rain mn
in
humidity
%
barometer
mb
20260906174520 91 227 0.9 2.6 0.00 0.64 0.01 57 1011.4
20260906173018 92 40 1.7 5.2 0.00 0.64 0.01 60 1011.6
20260906171512 91 15 0.9 2.6 0.00 0.64 0.01 62 1011.5
20260906170012 90 15 0.9 5.2 0.00 0.64 0.01 60 1011.8
20260906164507 90 13 0.0 3.5 0.00 0.64 0.01 64 1011.9
20260906163009 88 12 0.0 3.5 0.00 0.64 0.01 65 1012.2
20260906161502 88 9 0.9 3.5 0.00 0.64 0.01 67 1012.2
20260906160059 87 5 1.7 3.5 0.00 0.64 0.01 69 1012.3
20260906154556 86 15 0.9 4.3 0.00 0.64 0.01 73 1012.4
20260906153058 85 5 0.0 4.3 0.00 0.64 0.01 73 1012.4
20260906151552 85 360 0.9 2.6 0.00 0.64 0.01 76 1012.4
20260906150058 84 49 0.0 3.5 0.00 0.64 0.01 78 1012.5
20260906144558 83 314 0.0 2.6 0.00 0.64 0.01 83 1012.5
20260906143042 82 343 0.0 4.3 0.00 0.64 0.01 84 1012.4
20260906141544 79 322 0.9 4.3 0.00 0.64 0.01 93 1012.4
20260906140039 76 317 0.0 2.6 0.00 0.64 0.01 98 1012.3
20260906134531 75 327 0.9 3.5 0.00 0.64 0.01 98 1012.4
20260906133029 75 39 0.0 5.2 0.00 0.64 0.01 98 1012.3
20260906131529 74 226 0.0 2.6 0.00 0.64 0.01 98 1012.3
20260906130035 74 226 0.0 1.7 0.00 0.64 0.01 98 1012.4
20260906124518 72 227 0.0 0.0 0.00 0.64 0.01 98 1012.2
20260906123014 70 226 0.0 0.0 0.00 0.64 0.01 98 1012.1
20260906121513 69 226 0.0 0.0 0.00 0.64 0.01 97 1011.9
20260906120010 69 226 0.0 0.0 0.00 0.64 0.01 97 1011.8
20260906114515 68 226 0.0 0.0 0.00 0.64 0.01 97 1011.6
20260906113010 68 226 0.0 0.0 0.00 0.64 0.01 97 1011.6
20260906111506 68 226 0.0 0.0 0.00 0.64 0.01 97 1011.7
20260906110008 68 226 0.0 0.0 0.00 0.64 0.01 97 1011.3
20260906104510 68 226 0.0 0.0 0.00 0.64 0.01 97 1011.2
20260906103004 69 226 0.0 0.0 0.00 0.64 0.01 97 1011.3
20260906101502 69 226 0.0 0.0 0.00 0.64 0.01 97 1011.3
20260906100002 69 226 0.0 0.0 0.00 0.64 0.01 97 1011.2
20260906094504 69 226 0.0 0.0 0.00 0.64 0.01 97 1011.2
20260906093108 69 226 0.0 0.0 0.00 0.64 0.01 97 1011.3
20260906091608 69 226 0.0 0.0 0.00 0.64 0.01 97 1011.0
20260906090059 69 226 0.0 0.0 0.00 0.64 0.01 97 1011.0
20260906084559 69 226 0.0 0.0 0.00 0.64 0.01 96 1011.0
20260906083059 69 226 0.0 0.0 0.00 0.64 0.01 96 1010.8
20260906081600 69 226 0.0 0.0 0.00 0.64 0.01 96 1010.6
20260906080058 69 226 0.0 0.0 0.00 0.64 0.01 96 1010.7
20260906074556 69 226 0.0 0.0 0.00 0.64 0.01 96 1010.6
20260906073055 70 226 0.0 0.0 0.00 0.64 0.01 96 1010.7
20260906071555 70 226 0.0 0.0 0.01 0.64 0.01 96 1010.7
20260906070054 70 226 0.0 0.0 0.01 0.64 0.01 96 1010.6
20260906064552 70 226 0.0 0.0 0.01 0.64 0.01 97 1010.6
20260906063050 70 226 0.0 0.0 0.01 0.64 0.01 97 1011.0
20260906061550 70 226 0.0 0.0 0.00 0.63 0.00 96 1011.0
20260906060048 70 226 0.0 0.0 0.00 0.63 0.00 96 1011.3
20260906054545 70 226 0.0 0.0 0.00 0.63 0.00 96 1011.5
20260906053045 70 226 0.0 0.0 0.00 0.63 0.00 96 1011.6
20260906051543 70 226 0.0 0.0 0.00 0.63 0.00 96 1011.7
20260906050045 70 226 0.0 0.0 0.00 0.63 0.00 96 1011.8
20260906044544 70 226 0.0 0.0 0.00 0.63 0.00 96 1011.9
20260906043045 71 226 0.0 0.0 0.00 0.63 0.00 96 1011.8
20260906041541 71 226 0.0 0.0 0.00 0.63 0.00 96 1012.0
20260906040038 71 226 0.0 0.0 0.00 0.63 0.00 96 1012.1
20260906034543 71 226 0.0 0.0 0.00 0.63 0.63 96 1012.2
20260906033036 71 226 0.0 0.0 0.00 0.63 0.63 96 1012.3
20260906031546 71 226 0.0 0.0 0.00 0.63 0.63 96 1012.6
20260906030034 71 226 0.0 0.0 0.00 0.63 0.63 96 1012.4
20260906024533 71 226 0.0 0.0 0.00 0.63 0.63 96 1012.4
20260906023033 72 226 0.0 0.0 0.00 0.63 0.63 95 1012.4
20260906021532 72 226 0.0 0.0 0.00 0.63 0.63 95 1012.0
20260906020045 72 226 0.0 0.0 0.00 0.63 0.63 95 1012.0
20260906014534 72 226 0.0 0.0 0.00 0.63 0.63 95 1011.7
20260906013029 72 226 0.0 0.0 0.00 0.63 0.63 95 1011.6
20260906011528 72 226 0.0 2.6 0.00 0.63 0.63 95 1011.4
20260906010028 72 226 0.0 0.9 0.01 0.63 0.63 95 1010.9
20260906004527 72 226 0.0 0.0 0.01 0.63 0.63 94 1010.9
20260906003029 72 227 0.0 0.9 0.01 0.63 0.63 94 1010.8
20260906001531 72 226 0.0 0.9 0.01 0.63 0.63 94 1011.0
20260906000026 73 226 0.0 0.9 0.00 0.62 0.62 94 1011.2
20260905234525 73 226 0.0 0.9 0.00 0.62 0.62 94 1011.6
20260905233031 72 226 0.0 0.0 0.00 0.62 0.62 93 1012.0
20260905231524 72 227 0.0 1.7 0.01 0.62 0.62 93 1011.8
20260905230024 73 226 0.9 2.6 0.20 0.62 0.62 92 1011.9
20260905224523 73 226 0.0 2.6 0.62 0.62 0.62 90 1010.9
20260905223034 73 226 0.0 0.9 0.62 0.62 0.62 88 1010.1
20260905221537 74 226 0.0 2.6 0.61 0.61 0.61 86 1010.2
20260905220022 76 163 1.7 11.3 0.38 0.38 0.38 80 1012.6
20260905214520 83 190 6.1 15.6 0.00 0.00 0.00 73 1013.0
20260905213021 92 63 5.2 18.2 0.00 0.00 0.00 62 1011.1
20260905211536 94 254 0.0 1.7 0.00 0.00 0.00 55 1009.3
20260905210019 97 254 0.0 2.6 0.00 0.00 0.00 50 1009.4
20260905204517 98 285 0.9 3.5 0.00 0.00 0.00 50 1009.3
20260905203015 97 231 0.9 3.5 0.00 0.00 0.00 48 1009.5
20260905201514 98 221 1.7 7.0 0.00 0.00 0.00 46 1009.7
20260905200015 97 255 0.9 6.1 0.00 0.00 0.00 51 1010.0
20260905194511 98 260 0.9 2.6 0.00 0.00 0.00 49 1009.8
20260905193236 97 260 1.7 6.1 0.00 0.00 0.00 50 1011.2
20260905193006 97 258 0.9 6.1 0.00 0.00 0.00 53 1010.1
20260905191544 97 233 1.7 6.1 0.00 0.00 0.00 49 1010.2
20260905190042 97 259 0.9 5.2 0.00 0.00 0.00 55 1010.3
20260905184539 96 274 1.7 6.1 0.00 0.00 0.00 51 1010.8
20260905183036 96 274 1.7 4.3 0.00 0.00 0.00 53 1011.0
20260905181534 95 256 0.9 6.1 0.00 0.00 0.00 55 1011.2
20260905180035 95 234 1.7 7.0 0.00 0.00 0.00 59 1011.5
20260905174529 94 250 0.9 4.3 0.00 0.00 0.00 62 1011.8